Powrót do katalogu

SES 1

AktywnyŁącznośćGEO
NORAD 36516·PAYLOAD·🇱🇺 Luxembourg

Wystrzelony Apr 24, 2010 z Baikonur Cosmodrome

Loading…

TLE

ŚwieżeSource: CelesTrak SupGP

Epoka: Sep 13, 2026, 23:30 UTC

1 36516C 10016A   26256.97916667 -.00000025  00000+0  00000+0 0  2563
2 36516   0.0390 297.3437 0002488 239.4800  67.6515  1.00270928    18

Śledź SES 1 w czasie rzeczywistym z AllMySat

Download on the App Store